GFSSW_925_rhum_000.txt.gz
RH
13 12 10 8 7 6 6 6 6 5 5 5 5 6 20 19 18 18 28 9 8 9 15 32 42 42 61 34 33 33 42 45 45 44 43 51 66 56 56 66 58 61 70 72 87
16 14 15 11 7 6 6 5 5 6 5 5 5 6 18 17 30 45 6 7 8 8 13 34 30 29 30 23 30 36 40 37 35 36 49 48 57 59 64 64 67 74 74 83 89
20 17 15 15 11 7 6 6 5 5 5 5 5 6 19 19 41 14 11 12 12 11 9 12 10 13 14 16 24 35 33 32 31 32 40 46 54 49 60 71 70 82 86 83 86
30 18 15 14 13 10 7 6 6 5 5 4 5 8 20 34 18 8 12 13 11 16 13 12 10 13 17 18 14 26 28 30 29 34 39 47 48 59 58 58 56 66 74 81 86
22 22 16 12 10 10 9 7 5 4 5 5 8 19 43 32 24 11 9 9 12 21 17 13 12 16 19 18 15 16 16 28 32 32 34 40 50 57 52 57 59 66 74 79 81
38 18 17 12 10 9 9 7 6 5 5 7 19 28 51 25 12 9 14 21 19 22 16 11 12 15 16 15 13 12 24 32 34 36 37 49 53 54 56 61 68 70 75 75 76
42 28 19 13 12 10 7 6 5 5 7 17 35 66 66 21 13 12 14 19 19 16 16 11 10 12 13 14 12 24 32 32 34 35 48 41 50 56 57 62 72 74 75 74 75
34 27 24 19 12 9 7 5 4 7 38 50 57 77 41 20 16 14 21 14 12 16 11 10 10 10 12 12 21 26 32 39 33 37 45 39 55 63 57 62 72 74 74 75 76
58 33 22 16 14 10 6 4 8 43 44 51 74 65 43 21 22 18 21 13 10 12 11 9 11 12 11 16 33 27 42 38 37 35 41 43 56 64 56 62 72 73 72 73 76
64 46 27 18 12 9 5 9 33 71 81 80 80 54 29 18 17 16 15 13 9 10 10 10 14 18 21 23 45 37 38 35 44 35 42 50 55 65 58 59 66 66 65 69 70
56 37 32 17 13 10 12 23 30 32 64 34 31 34 24 17 17 17 14 13 8 7 10 10 14 18 20 16 20 27 36 33 34 30 40 52 58 68 60 58 60 60 62 64 63
55 36 35 15 15 15 23 28 28 24 25 25 23 24 20 20 21 17 14 16 14 14 9 14 15 14 14 17 19 27 29 34 26 29 35 50 53 63 61 59 58 59 60 60 58
48 40 39 15 14 47 24 21 24 16 30 22 23 22 22 23 22 19 16 14 13 15 10 14 11 13 17 19 17 19 20 22 27 37 42 50 56 63 62 58 56 55 54 55 56
43 41 53 18 22 27 35 23 15 21 36 28 23 19 23 26 27 16 14 14 10 15 11 11 9 13 18 20 20 22 17 17 28 37 46 41 55 66 56 61 55 53 54 54 54
46 26 66 81 46 63 14 14 16 27 37 18 18 14 18 19 14 18 14 13 18 11 12 13 11 13 18 17 17 16 17 20 30 37 42 50 46 45 57 64 55 49 48 48 48
42 17 72 58 62 12 16 11 27 30 39 21 20 15 20 17 15 12 14 11 14 12 10 12 9 12 11 13 15 15 14 23 33 41 47 43 44 43 72 53 46 46 46 47 47
37 11 39 93 45 15 18 22 29 38 19 17 18 16 15 18 18 13 16 15 19 21 20 11 10 10 11 12 14 15 20 27 28 48 47 42 52 34 39 43 38 43 45 46 45
27 12 16 25 21 31 25 22 40 25 23 20 17 18 14 17 16 16 14 21 16 15 22 18 13 11 10 13 16 17 20 29 25 37 40 47 57 39 26 29 37 38 40 41 45
32 28 44 30 42 41 26 25 28 33 24 21 17 18 20 17 15 16 16 18 17 14 16 20 17 12 10 11 12 15 19 17 25 30 31 40 31 22 21 27 39 39 44 43 46
86 86 49 45 51 38 30 20 20 22 16 12 20 18 18 20 18 17 17 16 12 13 12 14 16 12 9 10 12 14 16 19 28 29 33 32 26 31 24 29 34 42 42 41 43
79 48 39 57 40 38 27 22 15 14 12 9 19 20 19 17 17 18 17 15 12 11 13 14 15 13 13 14 12 17 19 23 25 29 30 29 33 28 23 28 29 39 36 38 41
90 25 48 50 47 51 36 23 16 12 11 13 14 16 17 17 17 19 19 15 12 12 13 14 14 16 14 11 12 13 16 19 19 24 33 29 25 18 24 24 39 35 35 36 42
97 93 38 37 57 53 45 36 27 26 24 24 20 16 15 20 24 21 18 14 13 15 16 16 18 16 15 13 14 14 20 22 25 29 36 27 25 22 30 35 47 45 43 44 50
88 84 72 52 53 38 39 31 30 26 28 26 26 24 22 27 26 23 23 20 20 21 45 27 18 14 15 13 14 16 20 23 19 29 30 31 18 18 30 38 47 49 45 47 49
82 91 82 86 60 68 43 39 37 34 26 26 30 34 34 37 33 29 22 22 26 33 30 15 16 15 12 13 16 16 18 24 21 20 20 17 23 21 29 36 40 45 49 50 49
95 97 94 98 83 53 52 41 43 38 34 31 37 34 38 38 34 32 31 31 29 41 33 23 17 18 13 12 14 12 14 22 21 20 21 17 23 21 23 33 36 44 49 48 50
77 81 95 80 88 62 51 51 48 45 36 30 30 42 50 44 37 36 34 34 52 39 57 43 20 24 18 16 16 18 12 16 17 21 20 23 20 22 30 33 34 40 43 41 42

GFSSW_925_rhum_003.txt.gz
RH
17 13 10 10 8 7 7 6 6 5 5 5 5 6 7 9 14 27 28 13 8 16 23 46 47 59 61 41 37 29 28 29 30 38 35 41 43 48 44 56 52 51 53 49 67
29 19 15 11 8 7 7 7 7 6 5 5 5 5 6 14 30 37 12 13 8 11 27 33 34 39 25 20 25 26 30 26 23 28 34 43 40 50 55 53 52 60 58 64 73
63 28 18 16 9 8 7 7 8 7 6 5 5 5 7 21 36 12 20 12 12 13 15 22 21 18 14 15 20 25 26 23 24 25 31 40 44 43 51 54 48 60 68 66 70
63 50 24 15 11 9 8 7 6 6 6 5 5 9 18 36 15 9 14 12 11 16 15 15 13 13 11 10 14 22 20 20 22 29 32 37 38 44 46 37 38 51 60 64 64
85 38 26 21 12 10 10 8 6 5 5 6 8 23 42 25 17 11 12 14 18 20 13 11 10 10 9 13 13 16 13 18 21 28 29 34 40 40 46 38 42 52 61 63 62
91 53 26 21 12 10 9 8 6 6 5 7 21 52 51 19 12 12 13 21 29 30 17 12 9 9 9 14 14 11 15 17 22 29 32 34 42 38 40 48 54 59 62 60 62
96 69 35 24 15 11 8 7 5 5 8 28 51 82 52 17 13 13 13 18 25 24 15 11 10 11 12 14 11 23 27 28 30 30 36 35 50 44 40 52 58 58 60 61 62
84 66 47 31 19 10 7 5 5 10 28 76 91 94 35 20 21 19 17 21 18 17 13 12 12 9 10 12 21 23 25 28 31 32 38 29 30 39 46 51 56 56 59 62 61
74 44 24 17 18 12 6 6 18 46 55 89 92 75 30 22 23 20 24 13 13 18 16 12 11 10 11 13 22 25 24 28 34 30 39 33 31 38 46 48 53 55 55 58 61
59 38 29 18 14 10 6 22 50 83 96 98 92 59 30 18 17 17 19 12 9 12 12 11 11 9 13 15 18 23 27 27 29 33 36 37 34 49 49 48 50 54 55 58 59
35 31 35 16 15 13 18 30 31 30 60 27 22 29 21 18 16 17 16 14 7 10 12 11 9 9 10 12 14 17 23 24 28 28 32 35 34 46 50 49 49 54 57 57 55
28 24 28 13 16 25 19 16 28 24 17 12 16 16 16 15 15 12 14 15 14 14 9 10 9 10 10 11 12 22 24 24 26 27 28 35 34 37 48 50 46 48 52 54 53
32 24 31 11 17 41 35 26 27 21 16 13 15 16 16 17 18 14 12 14 16 18 12 9 8 10 13 13 13 16 21 24 24 26 32 33 32 41 47 46 46 45 43 44 48
32 24 43 17 25 29 34 24 22 22 21 18 18 17 21 20 22 15 11 13 13 17 14 11 7 10 12 13 12 14 17 20 26 27 31 28 31 35 37 50 49 45 44 44 45
36 23 35 86 53 54 20 17 23 28 23 15 16 15 20 21 13 18 14 13 16 14 13 12 9 10 11 11 14 14 14 18 22 24 28 37 32 21 42 45 46 44 42 41 40
32 22 69 75 80 18 19 20 30 25 26 17 18 15 18 18 16 16 16 12 13 14 11 11 9 7 9 10 13 14 16 20 24 21 26 20 28 19 39 37 32 34 38 39 39
33 19 25 91 44 24 21 21 21 26 17 15 16 14 14 15 18 14 16 17 18 23 22 15 12 8 7 9 13 14 14 20 23 28 23 21 33 21 20 25 25 26 35 35 36
28 17 20 35 31 39 31 14 25 18 14 16 16 15 13 14 16 14 17 15 16 17 18 22 19 12 8 7 12 15 12 18 27 24 20 34 30 20 20 17 24 26 27 32 34
29 34 48 38 53 51 20 10 12 17 18 19 15 15 13 14 15 15 15 14 14 15 19 20 19 10 8 9 10 15 18 11 16 22 19 19 26 20 19 21 22 25 27 32 33
84 86 55 50 63 45 18 10 9 17 17 11 15 16 16 17 13 14 16 14 15 14 14 16 18 9 7 7 9 11 11 15 17 26 26 19 23 15 19 19 20 27 28 29 33
84 38 40 66 50 30 20 12 8 9 14 10 12 15 18 14 14 14 14 13 12 13 14 14 13 9 10 9 8 11 13 16 14 16 20 21 17 18 21 23 19 22 25 27 33
86 20 39 55 41 33 24 19 12 10 8 8 11 14 13 13 12 14 14 14 12 11 14 14 15 17 11 10 7 7 11 13 15 24 18 17 14 13 17 16 17 17 20 25 34
74 70 36 45 34 33 36 29 24 18 17 17 13 13 14 14 17 17 14 11 12 12 16 15 16 20 17 12 10 11 10 11 11 13 23 17 14 16 19 22 22 26 25 33 37
76 61 46 44 43 42 48 34 28 22 24 22 19 20 24 25 24 24 19 16 18 14 32 22 20 20 18 16 10 12 12 12 12 14 15 17 13 14 16 24 22 26 33 34 39
71 69 82 71 54 66 48 35 30 28 24 24 28 25 25 28 24 23 20 18 14 19 28 23 26 22 17 14 12 10 9 12 16 14 16 12 17 13 19 22 24 24 33 38 40
78 85 77 84 75 66 52 37 39 39 38 25 28 21 24 36 30 29 23 21 25 29 29 22 30 21 18 15 12 11 10 10 12 11 14 13 18 13 16 21 25 28 37 38 38
80 72 79 61 65 61 51 45 40 41 34 33 32 33 32 28 30 30 28 28 32 38 41 42 34 35 25 14 13 16 12 11 14 14 13 17 14 16 17 23 24 25 34 37 37

GFSSW_925_rhum_006.txt.gz
RH
45 24 17 14 10 8 7 7 6 6 6 6 5 5 6 6 9 43 22 14 10 9 42 35 33 31 28 21 20 20 20 19 19 22 24 23 27 29 28 38 37 34 32 37 46
85 42 20 16 10 9 9 8 6 6 5 5 5 5 6 7 35 17 13 16 13 11 29 26 21 26 17 12 14 18 19 17 15 17 22 24 24 31 35 37 37 40 34 41 47
94 84 37 17 13 10 10 9 8 6 6 5 5 5 6 17 25 8 16 10 12 16 16 17 12 16 10 7 10 13 18 16 16 15 18 24 26 26 27 35 31 39 41 41 46
60 38 29 25 16 11 11 10 9 6 6 5 5 6 12 54 10 10 15 12 9 35 17 14 10 11 7 8 7 13 11 12 13 17 18 22 22 29 26 24 24 29 37 42 44
40 22 18 18 15 11 10 10 9 7 6 8 8 10 47 21 11 13 12 14 19 29 13 10 8 8 7 7 7 10 9 9 10 14 15 19 24 25 27 26 25 31 38 40 40
88 46 18 14 11 10 10 10 8 7 6 8 32 23 43 15 10 17 26 32 22 19 11 8 7 6 6 7 9 8 9 9 9 13 17 22 25 27 26 24 31 36 39 38 39
98 69 26 19 13 10 8 7 7 6 8 10 81 65 34 12 11 14 17 17 20 16 10 8 6 6 6 8 7 9 13 17 15 16 22 21 31 31 25 29 36 38 38 38 38
46 29 22 22 16 12 7 6 6 14 21 76 73 64 20 15 19 19 18 16 18 20 13 9 7 6 6 7 9 11 12 16 18 20 23 23 22 26 27 31 37 37 38 39 39
42 27 20 17 13 12 7 9 23 48 73 75 75 49 16 22 19 16 17 12 13 15 12 9 7 8 7 10 12 12 15 14 24 21 27 26 21 24 27 29 33 36 36 38 40
82 33 21 15 11 9 8 18 53 91 92 82 66 45 21 11 15 14 18 11 10 12 12 10 9 9 9 9 14 15 15 13 16 24 25 26 21 27 28 28 28 35 35 37 38
34 29 22 16 11 12 18 28 31 34 47 17 11 15 10 11 14 12 14 10 8 10 9 8 9 9 9 9 10 10 13 14 13 19 24 21 21 23 31 29 28 32 35 35 34
37 33 24 13 11 21 32 11 17 18 12 7 7 8 8 9 12 8 12 12 10 11 8 8 8 6 6 8 10 11 12 13 13 19 21 19 22 21 24 31 28 29 32 35 33
36 40 31 13 12 42 25 18 23 17 12 8 7 8 9 9 12 10 9 11 12 10 8 9 6 5 6 7 10 11 12 13 16 20 20 18 23 20 19 26 28 26 26 30 32
45 41 35 19 25 29 19 24 26 22 13 9 12 12 14 12 14 10 8 10 11 10 9 7 5 5 7 9 10 13 9 11 14 19 24 20 23 17 17 25 28 30 27 26 30
53 27 40 52 50 25 20 22 24 22 17 11 12 12 13 14 12 12 8 8 11 10 9 9 6 7 7 7 7 11 9 11 12 16 19 21 24 17 18 20 23 26 27 24 24
69 49 43 43 51 35 28 27 27 22 18 10 11 14 14 13 11 13 11 8 8 10 10 9 6 5 6 5 7 8 10 12 12 14 21 18 20 16 15 18 15 17 22 25 22
67 48 43 59 20 30 30 14 16 15 11 10 11 11 10 9 11 12 13 12 12 17 15 10 8 5 4 7 6 9 13 20 22 19 20 16 19 17 11 10 12 10 14 22 22
64 38 49 48 44 42 26 10 16 10 10 10 11 11 12 9 10 10 12 11 10 11 12 14 12 8 6 6 9 10 11 16 24 19 17 15 20 15 11 10 9 8 12 17 22
63 38 32 37 54 44 19 10 10 10 9 8 8 11 11 10 10 11 11 11 9 10 14 13 13 7 6 6 6 10 12 10 13 12 13 11 15 12 10 12 11 11 14 16 20
70 43 27 37 62 42 19 13 7 5 7 10 11 9 10 8 11 10 10 9 10 9 10 12 16 10 7 6 6 7 9 14 12 23 22 15 14 15 13 10 9 10 14 16 19
55 29 32 60 59 36 21 11 8 5 6 9 9 9 10 10 11 10 10 9 9 9 11 11 14 10 9 8 8 8 9 12 11 13 17 19 15 10 12 11 10 8 13 13 17
45 26 36 52 38 21 21 13 13 7 5 5 7 7 9 10 12 12 12 10 9 9 13 13 14 16 9 6 5 6 9 11 15 21 14 14 12 7 8 9 8 8 7 7 14
47 29 23 35 27 18 17 16 13 13 8 6 6 7 7 10 13 11 9 8 7 10 12 12 16 20 16 8 7 7 7 9 10 12 19 17 14 8 8 9 9 13 12 12 19
45 28 18 34 22 31 28 31 24 14 12 9 8 7 7 10 10 12 12 8 9 9 38 18 12 17 16 15 9 10 8 7 8 12 14 13 12 10 8 10 8 9 13 15 24
43 31 45 29 34 49 48 40 32 22 17 14 15 14 11 13 13 14 13 12 14 19 20 21 25 16 13 11 10 9 8 8 8 9 13 12 11 10 10 9 8 7 8 14 25
63 53 52 49 43 39 35 37 34 25 25 24 22 14 13 16 15 15 13 14 12 13 14 17 27 21 19 13 11 12 10 8 7 7 8 8 10 7 8 8 8 8 8 14 25
56 53 58 43 36 39 31 30 32 37 30 24 26 29 27 21 20 18 18 20 19 18 20 22 25 30 26 16 15 18 12 10 9 7 7 10 8 7 7 8 9 9 12 15 22

GFSSW_925_rhum_009.txt.gz
RH
42 21 13 11 9 9 9 8 7 6 6 6 5 6 6 6 8 46 21 12 12 10 14 26 26 17 18 15 13 12 26 18 17 29 16 15 16 17 18 24 24 24 29 33 39
68 31 16 12 11 9 9 9 8 7 7 6 5 5 5 6 29 14 10 11 11 10 22 16 15 14 15 13 12 14 55 20 11 23 15 15 15 18 21 25 26 27 27 36 39
94 68 25 15 12 10 9 9 7 7 7 6 6 5 6 9 19 8 10 9 12 13 13 12 11 12 14 10 9 11 28 17 12 12 15 15 15 15 19 24 24 29 32 34 38
96 84 51 29 13 10 10 9 8 7 6 6 6 6 8 38 13 13 9 10 10 23 18 10 10 11 13 10 8 11 11 11 11 12 13 15 14 16 15 16 18 23 28 32 36
94 39 23 20 16 12 11 12 8 6 6 5 6 6 39 17 10 16 12 12 24 20 17 9 10 9 11 8 8 9 10 8 8 10 11 14 16 16 15 14 17 22 27 31 33
56 26 24 17 14 12 11 10 8 6 5 5 6 15 41 16 7 12 13 21 16 17 11 9 8 7 8 8 8 8 8 8 8 8 11 14 15 17 16 16 20 25 27 28 30
36 27 25 19 13 10 8 7 7 6 6 8 13 60 22 13 7 8 14 13 12 12 10 8 7 6 6 7 6 7 9 10 10 9 12 12 16 17 16 19 22 26 27 27 28
28 28 27 20 14 10 8 6 6 10 21 27 32 52 19 9 11 9 9 10 10 11 9 6 5 6 6 6 7 8 9 12 10 10 11 14 19 17 16 19 21 24 26 27 27
48 30 29 15 11 9 8 8 14 33 46 47 66 36 15 14 13 11 10 10 10 9 10 8 7 6 6 8 9 10 12 12 13 11 14 16 26 17 18 17 20 22 24 26 28
55 31 34 17 11 9 6 20 43 68 81 65 44 31 17 11 10 10 11 9 8 9 10 9 7 8 7 9 13 13 12 11 17 12 15 16 23 18 19 18 18 20 22 25 26
56 48 27 19 11 10 16 21 26 39 36 18 14 11 9 8 11 10 10 9 7 10 10 8 7 8 8 9 9 10 10 11 10 10 14 16 16 18 20 19 18 19 20 23 25
63 57 32 22 11 18 35 12 11 12 11 7 7 7 7 6 8 9 10 9 8 10 9 7 8 6 6 8 9 9 10 11 10 11 13 15 17 15 20 20 20 19 20 20 22
67 70 50 19 12 36 13 14 13 12 11 7 5 6 5 5 6 7 6 10 8 9 8 7 6 5 6 8 10 10 10 10 11 16 14 15 18 16 15 19 19 18 18 18 20
71 69 65 30 20 18 13 15 14 12 14 7 7 6 6 6 7 5 6 7 10 9 7 7 4 4 6 8 8 10 8 9 9 17 21 13 20 17 14 15 20 20 19 18 19
74 67 68 40 46 23 12 12 12 13 17 7 8 7 8 9 9 9 7 6 10 9 8 7 6 5 6 6 7 9 7 9 9 13 22 14 16 17 13 15 16 18 19 18 17
68 62 57 37 35 28 19 16 14 17 17 8 8 11 12 10 8 9 8 6 7 9 8 7 5 4 5 4 6 6 8 9 9 11 16 15 17 16 19 14 13 13 16 19 17
66 57 56 58 21 16 15 12 14 16 8 8 8 8 9 9 8 10 10 9 10 12 12 9 7 5 4 5 5 7 9 14 16 14 15 11 16 25 11 11 11 10 11 14 18
59 45 46 35 30 28 21 13 18 11 10 6 6 8 8 7 7 9 10 9 8 8 9 12 12 8 5 5 6 7 8 12 21 17 14 11 15 12 10 8 8 8 7 9 15
64 34 26 21 23 25 18 15 13 11 7 7 7 8 9 7 7 7 10 9 8 8 10 10 12 6 6 5 4 6 9 8 11 11 13 11 11 9 10 10 9 8 7 8 12
72 45 22 20 30 27 22 19 10 7 6 6 9 8 10 9 8 8 9 8 8 6 7 9 12 8 6 5 4 5 5 10 10 20 19 12 12 12 12 11 9 9 8 8 9
61 23 19 25 35 32 25 17 13 8 7 7 8 9 7 7 7 8 9 6 6 7 7 7 10 10 8 8 7 6 6 7 9 11 15 16 13 8 12 11 10 9 8 7 9
39 32 20 30 37 28 29 20 18 10 7 6 6 8 9 8 8 8 8 7 5 6 8 8 10 14 11 7 6 5 6 6 11 18 12 13 11 7 7 8 8 9 8 7 8
42 30 21 16 25 22 20 18 15 15 12 9 7 6 7 9 11 9 8 6 6 7 9 8 12 15 15 10 7 8 7 6 6 9 18 15 13 7 7 7 8 8 8 8 8
50 34 18 17 18 18 18 18 18 12 13 11 10 8 7 8 8 10 9 7 6 7 25 13 12 15 15 15 9 9 8 6 6 8 10 11 12 10 9 9 8 8 8 9 9
52 38 24 37 26 34 44 57 36 45 25 16 15 12 9 10 9 9 8 8 7 11 11 11 17 13 12 11 10 8 6 6 7 7 10 9 10 10 10 9 8 7 8 8 8
74 52 43 40 35 38 41 36 30 30 34 39 28 15 11 12 10 10 8 10 11 8 11 10 18 16 15 10 10 10 9 7 6 6 6 7 8 6 7 8 8 8 8 8 8
76 65 57 45 35 33 29 37 33 20 32 41 46 52 33 18 20 19 13 8 10 13 14 15 17 23 25 15 14 15 10 9 9 7 7 8 7 6 8 9 9 8 8 9 9